THOR ABLESTAR DEB, 122

Orbit data source: Space-Track

THOR ABLESTAR DEB, 122 is space debris in LEO originally from a launch on Thu, 29 Jun 1961 UTC launched from the Air Force Eastern Test Range (AFETR). Debris objects in space refer to the collection of defunct objects orbiting the Earth. Examples of debris include non-operational satellites, rocket bodies, and fragments generated from explosions, collisions, or faulty payload assembly.

Loading next visibility...
THOR ABLESTAR DEB details
Identifier
122, 1961-015G
Orbit
LEO
Last TLE update11 hours ago
Origin
Flag of USUSAF SSD (US)
ManufacturerUnknown
MissionSpacecraft
Bus & MotorUnknown
MassUnknown
Launch date (UTC)
1961-06-29 (64 years ago)
Launch vehicleUnknown
Launch site
Air Force Eastern Test Range (AFETR)
Object type
Payload
Rocket body
Debris
Shape & HBRUnknown
Radar Cross SectionMedium (>0.1 m² and <1 m²)

Expand to show TLE details & history

TLE from 11 hours ago
0 THOR ABLESTAR DEB
1 00122U 61015G   25013.96135446  .00008837  00000-0  94956-3 0  9999
2 00122  66.7438 247.0790 0055137 260.1391  99.3510 14.87860558316664
Epoch: 2025-01-13T23:04Z
Definitive object data (Epoch: 2025-01-13T23:04:21.025Z)
Latitude0.00004°
Longitude147.31652°
Altitude613.251 km
Speed7.549 km/s
True Right ascension16h 28m 18s
True Declination0° 00' 00"
Sunlit
Object was in daylight at TLE epoch
Visualization TLE readout
Latitude-20.87195°
Longitude136.60172°
Altitude603.279 km
Speed7.562 km/s
Apparent Right ascension18h 35m 23s
Apparent Declination-43° 16' 30"
Sunlit
Object is in daylight
Visualization observer readout
Local Sidereal Time10:51:53
Azimuth116.168° SE
Elevation-43.123°
Doppler factor1
Orbital elements
Apogee altitude641.439 km
Perigee altitude564.456 km
Semi-major axis6,981.084 km
Eccentricity0.0055137
Inclination66.7438°
RAAN247.079°
Arg. of periapsis260.1391°
True anomaly99.97372°
Mean anomaly99.351°
Eccentric anomaly99.66243°
Mean motion3.72099 °/min
BSTAR0.00094956
Orbital period96.75 mins
Loading maneuver chart data...

THOR ABLESTAR DEB Visibility forecast

Observer location: undefined°, undefined

Span
Click to sort rows by Start time (UTC) header in descending order
Start Az.
Max El. time (UTC)
Max El. Az.
Max El.
End time (UTC)
End Az.
8 mins2025-01-14 16:56:49.951Z203.174° SW2025-01-14 17:00:49.951Z137.119° SSE44.469°2025-01-14 17:04:49.951Z31.844° NE
6 mins2025-01-15 01:25:49.951Z358.1° N2025-01-15 01:28:49.951Z59.553° ENE29.086°2025-01-15 01:31:49.951Z113.432° SE
5 mins2025-01-15 03:05:49.951Z287.783° WNW2025-01-15 03:07:49.951Z250.767° W22.361°2025-01-15 03:10:49.951Z201.854° SSW
|